Weather History for Rhinelander, WI

Change the Weather History Date:

Sunday, July 28, 2013

  Actual Average Record
Temperature  
Mean Temperature 52 °F 67 °F  
Max Temperature 59 °F 79 °F 95 °F (1916)
Min Temperature 45 °F 54 °F 43 °F (1978)
Degree Days  
Heating Degree Days 13 1  
Month to date heating degree days 69 54  
Since 1 June heating degree days 243 188  
Since 1 July heating degree days 69 54  
Cooling Degree Days 0 3  
Month to date cooling degree days 132 95  
Year to date cooling degree days 186 160  
Since 1 June cooling degree days 172 148  
Moisture  
Dew Point 47 °F    
Average Humidity 83    
Maximum Humidity 93    
Minimum Humidity 72    
Precipitation  
Precipitation 0.01 in 0.12 in 1.29 in (1964)
Month to date precipitation 2.40 3.67  
Year to date precipitation 21.03 17.24  
Snow  
Snow 0.00 in - 0.00 in ()
Month to date snowfall 0.0  
Since 1 June snowfall 0.0  
Since 1 July snowfall 0.0  
Snow Depth 0.00 in    
Sea Level Pressure  
Sea Level Pressure 29.92 in    
Wind  
Wind Speed 7 mph (NW)    
Max Wind Speed 18 mph    
Max Gust Speed 24 mph    
Visibility 9 miles    
Events Rain    
T = Trace of Precipitation, MM = Missing Value Source: NWS Daily Summary

Daily Weather History Graph

Daily Weather History Graph

Search for Another Location

Airport:

Trip Planner

Search our weather history database for the weather conditions in past years. The results will help you decide how hot, cold, wet, or windy it might be!

Date:

Astronomy

Jul. 28, 2013 Rise Set
Actual Time 5:37 AM CDT 8:30 PM CDT
Civil Twilight 5:02 AM CDT 9:05 PM CDT
Nautical Twilight 4:17 AM CDT 9:49 PM CDT
Astronomical Twilight 3:25 AM CDT 10:41 PM CDT
Moon 11:27 PM CDT (7/28) 12:43 PM CDT (7/28)
Length of Visible Light 16h 03m
Length of Day
14h 53m
Waning Gibbous, 60% of the Moon is Illuminated
Jul 28
Waning Gibbous
Jul 29
Last Quarter
Aug 6
New
Aug 14
First Quarter
Aug 20
Full

Hourly Weather History & Observations

Time (CDT) Temp. Windchill Dew Point Humidity Pressure Visibility Wind Dir Wind Speed Gust Speed Precip Events Conditions
12:51 AM 48.2 °F - 44.6 °F 87% 29.87 in 10.0 mi North 3.5 mph - N/A   Overcast
12:53 AM 48.0 °F - 45.0 °F 89% 29.88 in 10.0 mi Variable 3.5 mph - N/A   Overcast
1:18 AM 46.4 °F 45.2 °F 44.6 °F 93% 29.86 in 10.0 mi Variable 3.5 mph - N/A   Overcast
1:53 AM 46.9 °F - 45.0 °F 93% 29.88 in 10.0 mi North 3.5 mph - N/A   Overcast
2:04 AM 46.4 °F - 44.6 °F 93% 29.87 in 10.0 mi Calm Calm - N/A   Overcast
2:26 AM 46.4 °F - 44.6 °F 93% 29.87 in 10.0 mi Calm Calm - N/A   Overcast
2:53 AM 46.0 °F - 44.1 °F 93% 29.89 in 10.0 mi Calm Calm - N/A   Overcast
3:01 AM 46.4 °F - 44.6 °F 93% 29.86 in 10.0 mi Calm Calm - N/A   Overcast
3:43 AM 46.4 °F 44.3 °F 44.6 °F 93% 29.87 in 10.0 mi NW 4.6 mph - N/A   Overcast
3:53 AM 46.0 °F 44.8 °F 44.1 °F 93% 29.88 in 10.0 mi Variable 3.5 mph - N/A   Overcast
4:09 AM 44.6 °F - 42.8 °F 93% 29.86 in 10.0 mi Calm Calm - N/A   Overcast
4:36 AM 46.4 °F 44.3 °F 42.8 °F 87% 29.86 in 10.0 mi WNW 4.6 mph - N/A   Overcast
4:53 AM 46.0 °F 44.8 °F 44.1 °F 93% 29.87 in 10.0 mi NW 3.5 mph - N/A   Overcast
5:51 AM 46.4 °F - 44.6 °F 93% 29.86 in 5.0 mi Calm Calm - N/A   Overcast
5:53 AM 46.9 °F - 45.0 °F 93% 29.88 in 4.0 mi WNW 3.5 mph - N/A   Overcast
6:10 AM 46.4 °F 43.5 °F 44.6 °F 93% 29.86 in 1.8 mi West 5.8 mph - 0.01 in   Overcast
6:21 AM 46.4 °F 44.3 °F 44.6 °F 93% 29.86 in 2.5 mi WNW 4.6 mph - 0.01 in   Overcast
6:29 AM 46.4 °F 45.2 °F 46.4 °F 100% 29.86 in 4.0 mi WNW 3.5 mph - 0.01 in   Overcast
6:53 AM 48.0 °F - 46.0 °F 93% 29.88 in 10.0 mi West 4.6 mph - 0.01 in   Overcast
7:53 AM 50.0 °F - 46.9 °F 89% 29.88 in 10.0 mi NW 8.1 mph - N/A   Overcast
8:53 AM 51.1 °F - 48.0 °F 89% 29.90 in 10.0 mi WNW 4.6 mph - N/A   Overcast
9:40 AM 53.6 °F - 48.2 °F 82% 29.88 in 10.0 mi NW 6.9 mph - N/A   Overcast
9:53 AM 53.1 °F - 48.9 °F 86% 29.89 in 10.0 mi Variable 4.6 mph - N/A   Overcast
10:41 AM 55.4 °F - 48.2 °F 77% 29.88 in 10.0 mi Variable 6.9 mph 16.1 mph 0.00 in   Overcast
10:53 AM 55.0 °F - 48.9 °F 80% 29.90 in 10.0 mi WNW 9.2 mph - 0.00 in   Overcast
11:53 AM 57.9 °F - 48.9 °F 72% 29.88 in 10.0 mi WNW 10.4 mph 20.7 mph N/A   Mostly Cloudy
12:53 PM 57.9 °F - 50.0 °F 75% 29.89 in 10.0 mi WNW 11.5 mph 19.6 mph N/A   Overcast
1:53 PM 54.0 °F - 51.1 °F 90% 29.91 in 5.0 mi WNW 8.1 mph - 0.00 in Rain Light Rain
2:48 PM 53.6 °F - 51.8 °F 94% 29.92 in 3.0 mi WNW 10.4 mph 17.3 mph 0.00 in Rain Light Rain
2:53 PM 53.1 °F - 51.1 °F 93% 29.94 in 3.0 mi WNW 9.2 mph 17.3 mph 0.00 in Rain Light Rain
3:06 PM 53.6 °F - 51.8 °F 94% 29.92 in 5.0 mi WNW 8.1 mph - 0.00 in Rain Light Rain
3:39 PM 55.4 °F - 51.8 °F 88% 29.93 in 10.0 mi WNW 10.4 mph 20.7 mph 0.00 in   Overcast
3:53 PM 55.0 °F - 50.0 °F 83% 29.95 in 10.0 mi WNW 10.4 mph - 0.00 in   Overcast
4:53 PM 55.0 °F - 50.0 °F 83% 29.96 in 8.0 mi NNW 12.7 mph 17.3 mph 0.00 in Rain Light Rain
5:53 PM 55.0 °F - 48.9 °F 80% 29.97 in 10.0 mi Variable 6.9 mph 19.6 mph 0.00 in   Overcast
6:26 PM 53.6 °F - 50.0 °F 88% 29.96 in 10.0 mi Variable 5.8 mph - N/A   Overcast
6:38 PM 55.4 °F - 48.2 °F 77% 29.96 in 10.0 mi NNW 8.1 mph - N/A   Overcast
6:53 PM 54.0 °F - 48.0 °F 80% 29.99 in 10.0 mi North 8.1 mph 23.0 mph N/A   Overcast
7:10 PM 53.6 °F - 46.4 °F 77% 29.97 in 10.0 mi NNW 11.5 mph 21.9 mph N/A   Overcast
7:18 PM 53.6 °F - 46.4 °F 77% 29.97 in 10.0 mi NNW 8.1 mph 23.0 mph N/A   Overcast
7:53 PM 53.1 °F - 46.9 °F 80% 30.01 in 10.0 mi North 11.5 mph 17.3 mph N/A   Overcast
8:41 PM 53.6 °F - 46.4 °F 77% 30.00 in 10.0 mi NNW 6.9 mph - N/A   Overcast
8:53 PM 52.0 °F - 46.0 °F 80% 30.02 in 10.0 mi Variable 6.9 mph - N/A   Overcast
9:53 PM 52.0 °F - 46.0 °F 80% 30.04 in 10.0 mi Calm Calm - N/A   Mostly Cloudy
10:53 PM 52.0 °F - 46.9 °F 83% 30.04 in 10.0 mi Variable 4.6 mph - N/A   Overcast
11:53 PM 51.1 °F - 46.0 °F 83% 30.05 in 10.0 mi Variable 6.9 mph - N/A   Overcast